Weather History for Moab, UT

Change the Weather History Date:

Monday, July 7, 2014

  Actual Average Record
Temperature  
Mean Temperature 85 °F 80 °F  
Max Temperature 102 °F 95 °F 114 °F (1989)
Min Temperature 68 °F 64 °F 46 °F (1931)
Degree Days  
Heating Degree Days 0 0  
Month to date heating degree days 0 0  
Since 1 June heating degree days 0 17  
Since 1 July heating degree days 0 0  
Cooling Degree Days 20 14  
Month to date cooling degree days 124 96  
Year to date cooling degree days 509 415  
Since 1 June cooling degree days 410 351  
Growing Degree Days 36 (Base 50)    
Moisture  
Dew Point 39 °F    
Average Humidity 19    
Maximum Humidity 27    
Minimum Humidity 11    
Precipitation  
Precipitation 0.00 in 0.02 in 0.58 in (1957)
Month to date precipitation T 0.17  
Year to date precipitation 2.38 3.87  
Sea Level Pressure  
Sea Level Pressure 29.78 in    
Wind  
Wind Speed 6 mph (ESE)    
Max Wind Speed 22 mph    
Max Gust Speed 27 mph    
Visibility 10 miles    
Events      
T = Trace of Precipitation, MM = Missing Value Source: NWS Daily Summary

Daily Weather History Graph

Daily Weather History Graph

Search for Another Location

Airport:

Trip Planner

Search our weather history database for the weather conditions in past years. The results will help you decide how hot, cold, wet, or windy it might be!

Date:

Astronomy

Jul. 07, 2014 Rise Set
Actual Time 6:01 AM MDT 8:46 PM MDT
Civil Twilight 5:29 AM MDT 9:18 PM MDT
Nautical Twilight 4:50 AM MDT 9:57 PM MDT
Astronomical Twilight 4:05 AM MDT 10:42 PM MDT
Moon 3:54 PM MDT (7/7) 1:54 AM MDT (7/7)
Length of Visible Light 15h 48m
Length of Day
14h 45m
Waxing Gibbous, 73% of the Moon is Illuminated
Jul 7
Waxing Gibbous
Jul 12
Full
Jul 18
Last Quarter
Jul 26
New
Aug 3
First Quarter

Hourly Weather History & Observations

Time (MDT) Temp. Dew Point Humidity Pressure Visibility Wind Dir Wind Speed Gust Speed Precip Events Conditions
12:53 AM 78.1 °F 36.0 °F 22% 29.80 in 10.0 mi Calm Calm - N/A   Clear
1:53 AM 75.0 °F 36.0 °F 24% 29.79 in 10.0 mi West 4.6 mph - N/A   Clear
2:53 AM 73.9 °F 36.0 °F 25% 29.78 in 10.0 mi West 5.8 mph - N/A   Clear
3:53 AM 71.1 °F 36.0 °F 28% 29.80 in 10.0 mi Variable 3.5 mph - N/A   Clear
4:53 AM 75.9 °F 37.0 °F 24% 29.80 in 10.0 mi East 5.8 mph - N/A   Clear
5:53 AM 73.0 °F 37.0 °F 27% 29.81 in 10.0 mi ENE 3.5 mph - N/A   Clear
6:53 AM 72.0 °F 36.0 °F 27% 29.83 in 10.0 mi SSE 3.5 mph - N/A   Clear
7:53 AM 82.0 °F 39.9 °F 22% 29.83 in 10.0 mi ESE 5.8 mph - N/A   Clear
8:53 AM 84.9 °F 42.1 °F 22% 29.84 in 10.0 mi ESE 6.9 mph - N/A   Clear
9:53 AM 88.0 °F 43.0 °F 21% 29.83 in 10.0 mi East 3.5 mph - N/A   Clear
10:53 AM 91.0 °F 42.1 °F 18% 29.82 in 10.0 mi Calm Calm - N/A   Clear
11:53 AM 93.9 °F 41.0 °F 16% 29.81 in 10.0 mi Variable 3.5 mph - N/A   Clear
12:53 PM 97.0 °F 39.9 °F 14% 29.79 in 10.0 mi Variable 3.5 mph - N/A   Clear
1:53 PM 98.1 °F 39.0 °F 13% 29.76 in 10.0 mi Calm Calm - N/A   Clear
2:53 PM 100.0 °F 37.0 °F 11% 29.74 in 10.0 mi NNW 10.4 mph - N/A   Clear
3:53 PM 100.9 °F 35.1 °F 10% 29.73 in 10.0 mi Variable 4.6 mph - N/A   Clear
4:53 PM 100.9 °F 37.0 °F 11% 29.70 in 10.0 mi WSW 11.5 mph 17.3 mph N/A   Clear
5:53 PM 97.0 °F 37.0 °F 12% 29.71 in 10.0 mi South 12.7 mph - N/A   Clear
6:53 PM 95.0 °F 36.0 °F 13% 29.71 in 10.0 mi South 9.2 mph - N/A   Clear
7:39 PM 93.9 °F 37.0 °F 14% 29.94 in 10.0 mi NE 15.0 mph 26.5 mph N/A   Clear
7:53 PM 93.0 °F 37.9 °F 15% 29.73 in 10.0 mi NE 16.1 mph - N/A   Clear
8:53 PM 90.0 °F 44.1 °F 20% 29.74 in 10.0 mi SE 11.5 mph - N/A   Clear
9:53 PM 84.9 °F 42.1 °F 22% 29.75 in 10.0 mi SE 6.9 mph - N/A   Clear
10:53 PM 82.0 °F 39.9 °F 22% 29.77 in 10.0 mi SW 6.9 mph - N/A   Clear
11:53 PM 81.0 °F 39.0 °F 22% 29.78 in 10.0 mi NE 4.6 mph - N/A   Clear